Change the Weather History Date:

Monday, January 6, 2014

  Actual Average Record
Temperature  
Mean Temperature -4 °F -  
Max Temperature 2 °F 40 °F 72 °F (2008)
Min Temperature -9 °F 27 °F -9 °F (2014)
Degree Days  
Heating Degree Days 68    
Moisture  
Dew Point -14 °F    
Average Humidity 59    
Maximum Humidity 78    
Minimum Humidity 47    
Precipitation  
Precipitation 0.00 in - - ()
Sea Level Pressure  
Sea Level Pressure 30.53 in    
Wind  
Wind Speed 9 mph (West)    
Max Wind Speed 14 mph    
Max Gust Speed 24 mph    
Visibility 10 miles    
Events      
Averages and records for this station are not official NWS values.
T = Trace of Precipitation, MM = Missing Value Source: NWS Daily Summary

Daily Weather History Graph

Daily Weather History Graph

Search for Another Location

Airport or City:

Trip Planner

Search our weather history database for the weather conditions in past years. The results will help you decide how hot, cold, wet, or windy it might be!

Date:

Astronomy

Jan. 06, 2014 Rise Set
Actual Time 7:24 AM CST 5:04 PM CST
Civil Twilight 6:55 AM CST 5:34 PM CST
Nautical Twilight 6:22 AM CST 6:06 PM CST
Astronomical Twilight 5:50 AM CST 6:38 PM CST
Moon 10:46 AM CST (1/6) 11:31 PM CST (1/6)
Length of Visible Light 10h 38m
Length of Day
9h 40m
Waxing Crescent, 35% of the Moon is Illuminated
Jan 6
Waxing Crescent
Jan 7
First Quarter
Jan 15
Full
Jan 23
Last Quarter
Jan 30
New

Hourly Weather History & Observations

Time (CST) Temp. Windchill Dew Point Humidity Pressure Visibility Wind Dir Wind Speed Gust Speed Precip Events Conditions
12:26 AM 1.4 °F -14.5 °F -13.0 °F 51% 30.37 in 10.0 mi NW 10.4 mph 18.4 mph N/A   Clear
12:58 AM 1.4 °F -16.1 °F -13.0 °F 51% 30.46 in 10.0 mi NW 12.7 mph 24.2 mph 0.00 in   Clear
1:58 AM -0.2 °F -13.2 °F -12.1 °F 57% 30.47 in 10.0 mi WNW 6.9 mph - 0.00 in   Clear
2:58 AM -2.4 °F -15.8 °F -12.1 °F 63% 30.49 in 10.0 mi NW 6.9 mph - N/A   Clear
3:58 AM -4.0 °F -17.8 °F -12.3 °F 68% 30.50 in 10.0 mi WNW 6.9 mph - N/A   Clear
4:58 AM -4.2 °F -20.4 °F -13.7 °F 64% 30.50 in 10.0 mi WNW 9.2 mph 18.4 mph N/A   Clear
5:58 AM -6.5 °F -24.3 °F -17.3 °F 60% 30.53 in 10.0 mi NW 10.4 mph - N/A   Clear
6:58 AM -7.6 °F -23.4 °F -17.3 °F 63% 30.55 in 10.0 mi WNW 8.1 mph - N/A   Clear
7:58 AM -7.8 °F -20.8 °F -18.8 °F 59% 30.58 in 10.0 mi Variable 5.8 mph - N/A   Clear
8:58 AM -6.0 °F -22.6 °F -16.8 °F 60% 30.58 in 10.0 mi WNW 9.2 mph 17.3 mph N/A   Clear
9:58 AM -4.0 °F -20.2 °F -16.8 °F 54% 30.60 in 10.0 mi WNW 9.2 mph 18.4 mph N/A   Clear
10:58 AM -2.0 °F -18.7 °F -15.7 °F 52% 30.58 in 10.0 mi WNW 10.4 mph 19.6 mph N/A   Clear
11:50 AM -0.4 °F -18.4 °F -14.8 °F 51% 30.46 in 10.0 mi WNW 12.7 mph 21.9 mph N/A   Clear
11:58 AM -0.9 °F -17.4 °F -15.2 °F 51% 30.56 in 10.0 mi West 10.4 mph 19.6 mph N/A   Clear
12:58 PM 0.9 °F -16.8 °F -14.6 °F 48% 30.52 in 10.0 mi West 12.7 mph 19.6 mph N/A   Clear
1:58 PM 1.8 °F -14.0 °F -13.7 °F 48% 30.52 in 10.0 mi West 10.4 mph 24.2 mph N/A   Clear
2:58 PM 2.7 °F -15.3 °F -13.4 °F 47% 30.53 in 10.0 mi West 13.8 mph 24.2 mph N/A   Clear
3:58 PM 1.9 °F -12.9 °F -13.0 °F 50% 30.54 in 10.0 mi West 9.2 mph - N/A   Clear
4:58 PM 0.3 °F -13.8 °F -13.0 °F 54% 30.55 in 10.0 mi West 8.1 mph - N/A   Clear
5:58 PM -1.7 °F -11.8 °F -13.4 °F 58% 30.56 in 10.0 mi West 4.6 mph - N/A   Clear
6:58 PM -4.0 °F -14.6 °F -14.3 °F 61% 30.57 in 10.0 mi West 4.6 mph - N/A   Clear
7:58 PM -4.7 °F -15.4 °F -14.4 °F 63% 30.57 in 10.0 mi West 4.6 mph - N/A   Clear
8:58 PM -6.5 °F -17.5 °F -14.3 °F 69% 30.58 in 10.0 mi SW 4.6 mph - N/A   Clear
9:58 PM -7.8 °F -20.8 °F -14.6 °F 72% 30.57 in 10.0 mi SW 5.8 mph - N/A   Clear
10:58 PM -9.0 °F -23.8 °F -15.0 °F 75% 30.55 in 10.0 mi SW 6.9 mph - N/A   Clear
11:58 PM -8.9 °F -23.6 °F -14.1 °F 78% 30.54 in 10.0 mi SW 6.9 mph - N/A   Clear